| time (UTC) | temp F | wind direction | speed MPH | gust MPH | rain 1hr in | rain 24hr in | rain mn in | humidity % | barometer mb |
| 20260506231645 | 82 | 76 | 1.0 | 3.0 | 0.00 | 0.00 | 0.00 | 81 | 1008.5 |
| 20260506230146 | 82 | 75 | 1.0 | 3.0 | 0.00 | 0.00 | 0.00 | 81 | 1008.5 |
| 20260506224645 | 83 | 75 | 1.0 | 3.0 | 0.00 | 0.00 | 0.00 | 80 | 1008.5 |
| 20260506223145 | 83 | 16 | 1.0 | 5.0 | 0.00 | 0.00 | 0.00 | 78 | 1008.3 |
| 20260506221645 | 83 | 17 | 1.0 | 5.0 | 0.00 | 0.00 | 0.00 | 79 | 1008.2 |
| 20260506220145 | 83 | 168 | 3.0 | 5.0 | 0.00 | 0.00 | 0.00 | 78 | 1008.2 |
| 20260506214643 | 83 | 169 | 2.0 | 5.0 | 0.00 | 0.00 | 0.00 | 78 | 1008.3 |
| 20260506213145 | 84 | 90 | 1.0 | 5.0 | 0.00 | 0.00 | 0.00 | 76 | 1008.2 |
| 20260506211643 | 84 | 10 | 2.0 | 3.0 | 0.00 | 0.00 | 0.00 | 76 | 1008.2 |
| 20260506210844 | 83 | 72 | 0.0 | 3.0 | 0.00 | 0.00 | 0.00 | 76 | 1008.5 |
| 20260506204642 | 84 | 141 | 0.0 | 3.0 | 0.00 | 0.00 | 0.00 | 76 | 1008.6 |
| 20260506203143 | 84 | 141 | 1.0 | 5.0 | 0.00 | 0.00 | 0.00 | 75 | 1008.7 |
| 20260506201641 | 83 | 135 | 0.0 | 5.0 | 0.00 | 0.00 | 0.00 | 77 | 1008.8 |
| 20260506200142 | 83 | 180 | 0.0 | 3.0 | 0.00 | 0.00 | 0.00 | 76 | 1009.1 |
| 20260506194640 | 83 | 180 | 2.0 | 7.0 | 0.00 | 0.00 | 0.00 | 78 | 1009.0 |
| 20260506193142 | 83 | 162 | 3.0 | 7.0 | 0.00 | 0.00 | 0.00 | 77 | 1009.2 |
| 20260506191640 | 84 | 168 | 3.0 | 7.0 | 0.00 | 0.00 | 0.00 | 73 | 1009.3 |
| 20260506190141 | 85 | 130 | 2.0 | 7.0 | 0.00 | 0.00 | 0.00 | 73 | 1009.4 |
| 20260506184639 | 83 | 118 | 3.0 | 5.0 | 0.00 | 0.00 | 0.00 | 76 | 1009.6 |
| 20260506183834 | 83 | 157 | 3.0 | 5.0 | 0.00 | 0.00 | 0.00 | 77 | 1009.8 |
| 20260506181639 | 82 | 138 | 2.0 | 5.0 | 0.00 | 0.00 | 0.00 | 78 | 1010.2 |
| 20260506180139 | 82 | 144 | 2.0 | 3.0 | 0.00 | 0.00 | 0.00 | 77 | 1010.5 |
| 20260506174638 | 82 | 144 | 3.0 | 5.0 | 0.00 | 0.00 | 0.00 | 77 | 1010.7 |
| 20260506173140 | 81 | 145 | 2.0 | 3.0 | 0.00 | 0.00 | 0.00 | 79 | 1010.9 |
| 20260506171638 | 81 | 125 | 0.0 | 3.0 | 0.00 | 0.00 | 0.00 | 80 | 1011.0 |
| 20260506170139 | 81 | 125 | 2.0 | 5.0 | 0.00 | 0.00 | 0.00 | 78 | 1011.1 |
| 20260506164637 | 81 | 63 | 0.0 | 7.0 | 0.00 | 0.00 | 0.00 | 79 | 1011.0 |
| 20260506163138 | 81 | 120 | 1.0 | 5.0 | 0.00 | 0.00 | 0.00 | 81 | 1010.9 |
| 20260506162336 | 80 | 137 | 1.0 | 3.0 | 0.00 | 0.00 | 0.00 | 81 | 1010.7 |
| 20260506160137 | 80 | 137 | 1.0 | 5.0 | 0.00 | 0.00 | 0.00 | 81 | 1010.6 |
| 20260506154635 | 79 | 137 | 0.0 | 5.0 | 0.00 | 0.00 | 0.00 | 82 | 1010.5 |
| 20260506153136 | 79 | 137 | 1.0 | 3.0 | 0.00 | 0.00 | 0.00 | 83 | 1010.5 |
| 20260506152340 | 79 | 137 | 1.0 | 5.0 | 0.00 | 0.00 | 0.00 | 83 | 1010.5 |
| 20260506150136 | 79 | 138 | 2.0 | 5.0 | 0.00 | 0.00 | 0.00 | 84 | 1010.2 |
| 20260506144634 | 78 | 138 | 1.0 | 5.0 | 0.00 | 0.00 | 0.00 | 85 | 1010.3 |
| 20260506143135 | 78 | 138 | 2.0 | 7.0 | 0.00 | 0.00 | 0.00 | 85 | 1009.9 |
| 20260506141634 | 78 | 161 | 0.0 | 3.0 | 0.00 | 0.00 | 0.00 | 86 | 1009.9 |
| 20260506140836 | 77 | 161 | 1.0 | 3.0 | 0.00 | 0.00 | 0.00 | 86 | 1010.0 |
| 20260506134633 | 77 | 161 | 1.0 | 3.0 | 0.00 | 0.00 | 0.00 | 86 | 1010.1 |
| 20260506133134 | 77 | 161 | 0.0 | 2.0 | 0.00 | 0.00 | 0.00 | 86 | 1010.2 |
| 20260506132323 | 76 | 161 | 0.0 | 2.0 | 0.00 | 0.00 | 0.00 | 87 | 1010.3 |
| 20260506130134 | 76 | 161 | 0.0 | 2.0 | 0.00 | 0.00 | 0.00 | 87 | 1010.1 |
| 20260506124632 | 76 | 161 | 1.0 | 3.0 | 0.00 | 0.00 | 0.00 | 87 | 1010.0 |
| 20260506123133 | 76 | 161 | 0.0 | 2.0 | 0.00 | 0.00 | 0.00 | 87 | 1009.8 |
| 20260506121631 | 76 | 161 | 1.0 | 2.0 | 0.00 | 0.00 | 0.00 | 87 | 1009.7 |
| 20260506120132 | 76 | 161 | 0.0 | 3.0 | 0.00 | 0.00 | 0.00 | 87 | 1009.7 |
| 20260506115328 | 76 | 161 | 0.0 | 2.0 | 0.00 | 0.00 | 0.00 | 87 | 1009.5 |
| 20260506113132 | 76 | 161 | 0.0 | 2.0 | 0.00 | 0.00 | 0.00 | 86 | 1009.4 |
| 20260506111630 | 76 | 161 | 0.0 | 3.0 | 0.00 | 0.00 | 0.00 | 86 | 1009.3 |
| 20260506110132 | 76 | 164 | 0.0 | 5.0 | 0.00 | 0.00 | 0.00 | 86 | 1008.8 |
| 20260506104629 | 76 | 162 | 2.0 | 3.0 | 0.00 | 0.00 | 0.00 | 86 | 1008.7 |
| 20260506103130 | 76 | 164 | 2.0 | 5.0 | 0.00 | 0.00 | 0.00 | 85 | 1008.8 |
| 20260506101628 | 76 | 176 | 3.0 | 7.0 | 0.00 | 0.00 | 0.00 | 84 | 1008.6 |
| 20260506100129 | 76 | 190 | 3.0 | 7.0 | 0.00 | 0.00 | 0.00 | 84 | 1008.5 |
| 20260506095325 | 77 | 210 | 4.0 | 9.0 | 0.00 | 0.00 | 0.00 | 84 | 1008.4 |
| 20260506093130 | 77 | 175 | 4.0 | 9.0 | 0.00 | 0.00 | 0.00 | 84 | 1008.2 |
| 20260506091627 | 77 | 200 | 3.0 | 7.0 | 0.00 | 0.00 | 0.00 | 84 | 1008.3 |
| 20260506090129 | 77 | 206 | 2.0 | 5.0 | 0.00 | 0.00 | 0.00 | 84 | 1008.3 |
| 20260506084627 | 77 | 172 | 3.0 | 9.0 | 0.00 | 0.00 | 0.00 | 83 | 1008.2 |
| 20260506083128 | 77 | 176 | 5.0 | 9.0 | 0.00 | 0.00 | 0.00 | 83 | 1008.2 |
| 20260506081626 | 77 | 169 | 4.0 | 9.0 | 0.00 | 0.00 | 0.00 | 83 | 1008.5 |
| 20260506080127 | 77 | 192 | 3.0 | 11.0 | 0.00 | 0.00 | 0.00 | 83 | 1008.6 |
| 20260506073126 | 77 | 209 | 3.0 | 9.0 | 0.00 | 0.00 | 0.00 | 83 | 1009.0 |
| 20260506071624 | 77 | 106 | 3.0 | 7.0 | 0.00 | 0.00 | 0.00 | 83 | 1009.0 |
| 20260506070126 | 77 | 190 | 2.0 | 7.0 | 0.00 | 0.00 | 0.00 | 83 | 1009.3 |
| 20260506061624 | 77 | 197 | 2.0 | 9.0 | 0.00 | 0.00 | 0.00 | 83 | 1009.4 |
| 20260506060124 | 77 | 173 | 5.0 | 11.0 | 0.00 | 0.00 | 0.00 | 83 | 1009.3 |
| 20260506050123 | 78 | 116 | 5.0 | 14.0 | 0.00 | 0.00 | 0.00 | 81 | 1009.4 |
| 20260506044621 | 78 | 207 | 5.0 | 11.0 | 0.00 | 0.00 | 0.00 | 81 | 1009.3 |
| 20260506043123 | 78 | 168 | 3.0 | 9.0 | 0.00 | 0.00 | 0.00 | 80 | 1009.3 |
| 20260506041621 | 78 | 180 | 4.0 | 11.0 | 0.00 | 0.00 | 0.00 | 80 | 1009.3 |
| 20260506040123 | 78 | 161 | 3.0 | 7.0 | 0.00 | 0.00 | 0.00 | 80 | 1009.0 |
| 20260506034620 | 79 | 166 | 3.0 | 5.0 | 0.00 | 0.00 | 0.00 | 79 | 1009.0 |
| 20260506033809 | 79 | 99 | 3.0 | 9.0 | 0.00 | 0.00 | 0.00 | 79 | 1008.8 |
| 20260506031620 | 79 | 190 | 2.0 | 7.0 | 0.00 | 0.00 | 0.00 | 78 | 1008.8 |
| 20260506030120 | 79 | 164 | 5.0 | 11.0 | 0.00 | 0.00 | 0.00 | 77 | 1008.7 |
| 20260506025314 | 79 | 226 | 5.0 | 11.0 | 0.00 | 0.00 | 0.00 | 77 | 1008.3 |
| 20260506023120 | 79 | 148 | 3.0 | 9.0 | 0.00 | 0.00 | 0.00 | 76 | 1008.1 |
| 20260506021618 | 80 | 195 | 3.0 | 9.0 | 0.00 | 0.00 | 0.00 | 75 | 1007.9 |
| 20260506020119 | 80 | 157 | 3.0 | 13.0 | 0.00 | 0.00 | 0.00 | 74 | 1007.7 |
| 20260506014617 | 80 | 176 | 7.0 | 13.0 | 0.00 | 0.00 | 0.00 | 74 | 1007.4 |
| 20260506013119 | 80 | 179 | 6.0 | 11.0 | 0.00 | 0.00 | 0.00 | 73 | 1007.3 |
| 20260506011617 | 80 | 114 | 4.0 | 7.0 | 0.00 | 0.00 | 0.00 | 73 | 1007.0 |
| 20260506010118 | 81 | 221 | 4.0 | 14.0 | 0.00 | 0.00 | 0.00 | 72 | 1006.8 |
| 20260506004616 | 81 | 166 | 6.0 | 13.0 | 0.00 | 0.00 | 0.00 | 72 | 1006.8 |
| 20260506003118 | 81 | 188 | 7.0 | 18.0 | 0.00 | 0.00 | 0.00 | 72 | 1006.7 |
| 20260506001616 | 81 | 183 | 3.0 | 13.0 | 0.00 | 0.00 | 0.00 | 72 | 1006.8 |
| 20260506000117 | 82 | 204 | 6.0 | 16.0 | 0.00 | 0.00 | 0.00 | 72 | 1006.6 |
| 20260505234615 | 82 | 164 | 6.0 | 14.0 | 0.00 | 0.00 | 0.00 | 72 | 1006.7 |
| 20260505233116 | 83 | 162 | 4.0 | 14.0 | 0.00 | 0.00 | 0.00 | 70 | 1006.5 |